Regional Weather Roundup
Issued by NWS Cleveland, OH

Home | Current Version | Previous Version | Graphics & Text | Print | Product List | Glossary On
Versions: 1 2 3 4 5 6 7 8 9 10 11 12 13 14 15 16 17 18 19 20 21 22 23 24 25 26 27 28 29 30 31 32 33 34 35 36 37 38 39 40 41 42 43 44 45 46 47 48 49 50
000
ASUS41 KCLE 310110
RWRCLE
OHIO REGIONAL WEATHER ROUNDUP
NATIONAL WEATHER SERVICE WILMINGTON, OH
900 PM EDT TUE AUG 30 2016

NOTE: "FAIR" INDICATES FEW OR NO CLOUDS BELOW 12,000 FEET WITH NO
SIGNIFICANT WEATHER AND/OR OBSTRUCTIONS TO VISIBILITY.

OHZ001>008-015>018-024>027-034-035-043-044-310200-
   NORTHWEST OHIO

CITY           SKY/WX    TMP DP  RH WIND       PRES   REMARKS
DEFIANCE       MOCLDY    72  68  87 CALM      30.07R
FINDLAY        FAIR      79  66  64 NW6       30.05R
TOLEDO EXPRESS LGT RAIN  75  73  93 W12       30.05R
TOLEDO EXEC    FAIR      79  66  64 CALM      30.05S
LIMA           LGT RAIN  72  72 100 W10       30.09R
$$

OHZ009>014-019>023-028>033-038-089-310200-
   NORTHEAST OHIO

CITY           SKY/WX    TMP DP  RH WIND       PRES   REMARKS
CLE-HOPKINS    MOCLDY    78  58  49 E5        30.06F
CLE-LAKEFRONT  FAIR      77  63  61 NE5       30.04S
CUY CO. ARPT   MOCLDY    73  68  83 CALM      30.06S
LORAIN-ELYRIA  FAIR      72  63  73 CALM      30.05S
ASHTABULA      FAIR      68  67  96 CALM      30.08R
AKRON-CANTON   FAIR      78  54  43 SE3       30.07S
WOOSTER        FAIR      69  64  84 CALM      30.07S
MANSFIELD      FAIR      76  62  62 W5        30.08S
YOUNGSTOWN     MOCLDY    72  61  68 E3        30.07S
$$

OHZ042-051>053-060>062-070>072-077>081-310200-
  SOUTHWEST OHIO

CITY           SKY/WX    TMP DP  RH WIND       PRES   REMARKS
CINC-COVINGTON FAIR      79  66  64 CALM      30.04R
CINC-LUNKEN    FAIR      72  70  93 CALM      30.03R
HAMILTON       FAIR      73  67  81 CALM      30.05R
DAYTON         MOCLDY    78  64  61 CALM      30.07R
WRIGHT-PAT AFB FAIR      77  66  70 N2        30.05R
DAYTON GENERAL FAIR      75  63  66 E3        30.05R
WILMINGTON     FAIR      73  66  78 CALM      30.06R
$$

OHZ036-037-039>041-045>050-054>059-063>069-073>076-082>088-310200-
  CENTRAL AND SOUTHEAST OHIO

CITY           SKY/WX    TMP DP  RH WIND       PRES   REMARKS
COLUMBUS       FAIR      76  63  64 CALM      30.05R
OSU AIRPORT    FAIR      78  64  61 NW3       30.06R
BOLTON FIELD   FAIR      73  64  74 CALM      30.06R
RICKENBACK AFB FAIR      75  65  70 E6        30.04S
NEWARK         FAIR      71  67  87 CALM      30.05S
MARION         FAIR      74  66  76 CALM      30.07R
LANCASTER      FAIR      70  68  93 CALM      30.05S
ZANESVILLE     FAIR      75  63  66 CALM      30.06R
NEW PHILLY     FAIR      74  62  66 SE3       30.07R
$$




USA.gov is the U.S. government's official web portal to all federal, state and local government web resources and services.